This is the latest recevied weather packets stored in our database for station/object KB9ZI. If no packets are shown the sender has not sent any weather packets the latest 10 day(s).
| Time | Temp. | Humidity | Pressure | Rain* | Wind** | Luminosity | Snow |
|---|---|---|---|---|---|---|---|
| 1777482589 | 12.22° C | 48% | 1018.6 hPa | 0 mm | - | - | - |
| 1777482393 | 12.22° C | 51% | 1018.4 hPa | 0 mm | - | - | - |
| 1777482277 | 11.67° C | 48% | 1018.4 hPa | 0 mm | - | - | - |
| 1777482151 | 11.67° C | 50% | 1018.4 hPa | 0 mm | - | - | - |
| 1777482032 | 11.11° C | 50% | 1018.4 hPa | 0 mm | - | - | - |
| 1777481911 | 11.11° C | 50% | 1018.4 hPa | 0 mm | - | - | - |
| 1777481794 | 11.11° C | 50% | 1018.6 hPa | 0 mm | - | - | - |
| 1777481761 | 11.67° C | 46% | 1018.6 hPa | 0 mm | - | - | - |
| 1777481584 | 12.22° C | 50% | 1018.6 hPa | 0 mm | - | - | - |
| 1777481406 | 12.22° C | 51% | 1018.6 hPa | 0 mm | - | - | - |
| 1777481285 | 11.67° C | 50% | 1018.3 hPa | 0 mm | - | - | - |
| 1777481242 | 11.11° C | 50% | 1018.6 hPa | 0 mm | - | - | - |
| 1777481159 | 11.11° C | 50% | 1018.6 hPa | 0 mm | - | - | - |
| 1777480923 | 11.11° C | 48% | 1018.6 hPa | 0 mm | - | - | - |
| 1777480802 | 11.11° C | 50% | 1018.6 hPa | 0 mm | - | - | - |
| 1777480682 | 10.56° C | 51% | 1018.6 hPa | 0 mm | - | - | - |
| 1777480589 | 11.11° C | 48% | 1018.6 hPa | 0 mm | - | - | - |
| 1777480558 | 11.67° C | 48% | 1018.7 hPa | 0 mm | - | - | - |
| 1777480322 | 11.67° C | 51% | 1018.7 hPa | 0 mm | - | - | - |
| 1777480260 | 11.11° C | 49% | 1018.6 hPa | 0 mm | - | - | - |
| 1777480083 | 11.11° C | 49% | 1018.4 hPa | 0 mm | - | - | - |
| 1777479985 | 11.67° C | 48% | 1018.6 hPa | 0 mm | - | - | - |
| 1777479953 | 11.67° C | 54% | 1018.6 hPa | 0 mm | - | - | - |
| 1777479724 | 11.11° C | 47% | 1018.6 hPa | 0 mm | - | - | - |
| 1777479603 | 11.11° C | 49% | 1018.6 hPa | 0 mm | - | - | - |
* Rain latest hour (hover to see other rain measurements)
** Current wind speed in m/s (hover to see current wind gust speed)